Showing default

LILACSAT 2, 40908

Orbit data source: Space-Track

LILACSAT 2, 40908 is a payload satellite owned by Harbin (CN) in SSO that was launched on Sat, 19 Sep 2015 UTC via a CHANG ZHENG 6 launch vehicle from the Taiyaun Space Center, China (TSC). Payload-class satellites include a variety of spacecraft equipped with specific instruments for various scientific and technological missions. These include communications satellites like Starlink; space stations such as the ISS; scientific satellites like the Hubble; Earth observation satellites from companies like Planet Labs, Umbra, and HawkEye 360; GPS; miniature CubeSats for education and research; and military/defense satellites.

Loading next visibility...
Identifier
40908, 2015-049K
Orbit
SSO
Country
Flag of CNCN / PRC
Related business
Manufacturer
Harbin
Mission
Operational Amateur Communications
Bus & Motor
CAS-3H, Unknown motor
Mass
11 kg wet, 11 kg dry
Launch date (UTC)
2015-09-19 (10 years ago)
Launch vehicle
CHANG ZHENG 6
Launch site
Taiyaun Space Center, China (TSC)
Object type
Payload
Rocket body
Debris
Shape & HBR
Box, 0.1 m
Radar Cross Section
0.060 m², Small (<0.1 m²)

Expand to show TLE details & history
Last TLE update: 13 hours ago

TLE from 13 hours ago
0 LILACSAT 2
1 40908U 15049K   25260.22199639  .00011690  00000-0  28319-3 0  9999
2 40908  97.5033 283.1095 0009855 151.0996 209.0798 15.41201251553567
Epoch: 2025-09-17T05:19Z
TLE epoch observation values (Epoch: 2025-09-17T05:19:40.488Z)
Latitude
Longitude
-153.21025°
Altitude
451.556 km
Speed
7.638 km/s
True Right ascension
18h 52m 26s
True Declination
0° 00' 00"
Sunlit
Object was in daylight at epoch
Visualization orbit readout
Latitude
Unknown
Longitude
Unknown
Altitude
Unknown
Speed
Unknown
Apparent Right ascension
Unknown
Apparent Declination
Unknown
Sunlit
N/A
Visualization observer readout
Local Sidereal Time
11:15:17
Azimuth
Unknown
Elevation
Unknown
Doppler factor
Unknown
Orbital elements
Apogee altitude
446.223 km
Perigee altitude
432.786 km
Semi-major axis
6,817.642 km
Eccentricity
0.00099
Inclination
97.5033°
RAAN
283.1095°
Arg. of periapsis
151.0996°
True anomaly
209.02497°
Mean anomaly
209.0798°
Eccentric anomaly
209.05238°
Mean motion
3.8556 °/min
Orbital period
93.37 mins
BSTAR
0.00028319
Loading maneuver chart data...
Computing Atmospheric mass density...
Loading historical data...
Loading historical data...
Loading historical data...
Loading historical data...
Loading historical data...
Loading historical data...
Loading historical data...

Documentation

Showing up to 5 results
|